[[{"header":{"parameterUnit":"m.s-1","parameterCategory":2,"la1":30.2991,"la2":30.254,"lo1":-89.0895,"lo2":-89.0444,"dy":0.0017,"dx":0.0017,"nx":28,"ny":28,"refTime":"2025-05-30T03:00:00:Z","depth":"0","parameterNumber":2,"parameterNumberName":"U-component_of_CURRENTS"},"data":[0,0,0,0,0,0,0,0,0,0,0,0,0,0,0,0,0,0,0,0,0,0,0,0,0,0,0,0,0,0,0,0,0,0,0,0,0,0,0,0,0,0,0,0,0,0,0,0,0,0,0,0,0,0,0,0,0,0,0.3396,0.3397,0,0.35,0.3501,0.3502,0.351,0.3509,0.3508,0.3507,0.3529,0.3531,0.3532,0,0,0,0,0,0,0,0,0,0,0,0,0,0.3258,0.326,0.3396,0.3398,0.3399,0.35,0.3501,0.3502,0.351,0.3509,0.3508,0.3507,0.3529,0.353,0.3532,0,0,0,0,0,0,0,0,0,0,0,0,0,0.3333,0.3261,0.3396,0.3417,0.342,0.35,0.3501,0.3503,0.351,0.3509,0.3507,0.3506,0.3528,0.353,0.3532,0.3573,0,0,0.3539,0.354,0,0,0,0,0,0,0,0,0.3329,0.3338,0.3412,0.3416,0.3419,0.3493,0.3461,0.3523,0.351,0.3473,0.3507,0.3505,0.3512,0.3516,0.3536,0.3574,0.3575,0.3539,0.354,0.3541,0.3542,0,0,0,0,0,0,0,0.3323,0.3334,0.3434,0.3414,0.3419,0.344,0.3449,0.3473,0.3495,0.3476,0.3478,0.3494,0.3513,0.3534,0.3536,0.3575,0.3539,0.3541,0.3542,0.3543,0.368,0.3682,0,0,0,0,0,0,0.3315,0.3329,0.3431,0.3438,0.3373,0.3444,0.3453,0.3468,0.3497,0.3502,0.3495,0.3494,0.3531,0.3533,0.3537,0.3601,0.3541,0.3543,0.3545,0.3677,0.368,0.3683,0,0,0,0,0,0,0.3312,0.3323,0.3427,0.3388,0.3403,0.3447,0.3465,0.3471,0.3494,0.3513,0.3515,0.3511,0.353,0.3534,0.3566,0.3601,0.3544,0.3546,0.3674,0.3678,0.3681,0.372,0,0,0,0,0,0,0.3307,0.3321,0.333,0.3387,0.3405,0.3481,0.3467,0.3474,0.3507,0.3507,0.3527,0.3528,0.3529,0.3563,0.3568,0.3603,0.3548,0.3672,0.3676,0.368,0.3716,0.3725,0.3732,0,0,0,0,0,0.3302,0.3322,0.333,0.3342,0.3415,0.3483,0.3494,0.3519,0.3509,0.3531,0.3541,0.3527,0.3594,0.3566,0.3572,0.3608,0.3669,0.3675,0.368,0.3713,0.3723,0.3732,0,0,0,0,0,0,0.3265,0.3327,0.3336,0.3372,0.3426,0.3485,0.351,0.3526,0.3554,0.3549,0.3551,0.3554,0.3606,0.3604,0.3572,0.3664,0.3633,0.364,0.3656,0.3666,0.3674,0.3698,0.355,0,0,0,0,0,0.3263,0.3295,0.3356,0.3388,0.3413,0.3462,0.3491,0.3513,0.3548,0.356,0.3577,0.3599,0.3636,0.3643,0.3679,0.3717,0.3793,0.3749,0.3757,0.3764,0.379,0.3976,0.4004,0.37,0.37,0.37,0,0,0.326,0.3297,0.3317,0.3383,0.3423,0.3474,0.3475,0.3529,0.3571,0.3558,0.3611,0.3634,0.3657,0.371,0.3731,0.3705,0.3883,0.377,0.3775,0.3799,0.3985,0.4015,0.4041,0.3703,0.3703,0.3702,0,0,0.3278,0.3303,0.3339,0.3383,0.3449,0.3487,0.3503,0.357,0.3596,0.3652,0.3662,0.3708,0.3747,0.3784,0.3801,0.3878,0.3931,0.3882,0.3928,0.4107,0.4135,0.416,0.4263,0.4298,0.3872,0.3872,0.3873,0,0.3271,0.3334,0.3361,0.3406,0.3459,0.3492,0.3554,0.3586,0.3654,0.3703,0.3672,0.3798,0.3793,0.389,0.3899,0.3898,0.3991,0.388,0.4121,0.4147,0.4172,0.4273,0.431,0.3875,0.3875,0.3874,0.3874,0,0.3328,0.3373,0.3402,0.3472,0.3518,0.3588,0.3638,0.3688,0.3719,0.3766,0.3876,0.3894,0.398,0.3972,0.3943,0.4111,0.4115,0.4121,0.4096,0.4206,0.4303,0.4342,0.3879,0.3878,0.3877,0.3876,0,0,0.3341,0.343,0.3439,0.3496,0.3574,0.363,0.3694,0.3801,0.3878,0.3923,0.4047,0.4079,0.4113,0.4138,0.4135,0.4241,0.445,0.4243,0.4251,0.4345,0.4825,0.4749,0.4782,0.4518,0.4525,0.4531,0.4811,0,0.3396,0.3498,0.3525,0.3632,0.3707,0.3754,0.3824,0.3905,0.3975,0.4091,0.4137,0.4241,0.417,0.4222,0.4326,0.4439,0.4559,0.4371,0.4706,0.4715,0.4637,0.4828,0.466,0.4892,0.4848,0.4854,0.4859,0,0.3467,0.3531,0.3644,0.3763,0.3798,0.3849,0.4005,0.407,0.4203,0.4261,0.437,0.442,0.456,0.4491,0.4769,0.4664,0.4757,0.4822,0.4836,0.4786,0.4713,0.4784,0.4963,0.4768,0.4918,0.4913,0.4909,0,0.352,0.3628,0.3732,0.3771,0.3886,0.3946,0.401,0.4133,0.4205,0.4385,0.447,0.465,0.4751,0.4927,0.5014,0.4947,0.5321,0.5257,0.5276,0.5268,0.5201,0.5175,0.5236,0.5503,0.5502,0.5501,0.55,0,0.3603,0.3687,0.3761,0.3819,0.3923,0.3998,0.4119,0.4201,0.4343,0.444,0.4564,0.4679,0.4878,0.5068,0.5146,0.5336,0.5456,0.5345,0.5376,0.5201,0.5174,0.5057,0.495,0.5511,0.5509,0.5507,0.5505,0,0.365,0.3713,0.3816,0.3922,0.3947,0.4017,0.4116,0.4202,0.4352,0.449,0.4555,0.4778,0.5024,0.5193,0.5484,0.5502,0.5533,0.5712,0.5444,0.5438,0.5222,0.5124,0.5125,0.4981,0.581,0.581,0.581,0,0.3699,0.3759,0.3839,0.3859,0.3897,0.3987,0.4033,0.4174,0.4251,0.4518,0.4582,0.4873,0.5014,0.5407,0.5557,0.5767,0.5548,0.5695,0.5527,0.5243,0.516,0.4936,0.4796,0.5446,0.5443,0.5441,0.5439,0,0.3745,0.3757,0.3793,0.383,0.3868,0.3911,0.3992,0.4046,0.4223,0.4363,0.4546,0.4699,0.5078,0.5232,0.5522,0.5612,0.5397,0.5653,0.5483,0.5,0.4649,0.4511,0.5166,0.542,0.5422,0.5423,0.5424,0.5425,0.3719,0.3727,0.3737,0.376,0.3789,0.3795,0.3782,0.3889,0.3985,0.4137,0.4391,0.457,0.4906,0.5288,0.5344,0.531,0.5272,0.5174,0.5118,0.4946,0.468,0.5247,0.5445,0.5447,0.5449,0.545,0.5452,0,0.3636,0.3638,0.3665,0.3645,0.3615,0.3673,0.3708,0.3673,0.3708,0.3949,0.4099,0.4415,0.4605,0.4819,0.4952,0.4806,0.4613,0.4661,0.4309,0.4231,0.4878,0.4727,0.4628,0.4629,0.4629,0.4629,0.4629,0.4629,0.3582,0.3542,0.3549,0.3452,0.3439,0.3335,0.331,0.33,0.3414,0.3538,0.37,0.3961,0.4291,0.4523,0.4419,0.433,0.396,0.3833,0.3783,0.4213,0.4253,0.4292,0.4124,0.3901,0.39,0.2985,0.2977,0.2972]},{"header":{"parameterUnit":"m.s-1","parameterCategory":2,"la1":30.2991,"la2":30.254,"lo1":-89.0895,"lo2":-89.0444,"dy":0.0017,"dx":0.0017,"nx":28,"ny":28,"refTime":"2025-05-30T03:00:00:Z","depth":"0","parameterNumber":3,"parameterNumberName":"V-component_of_CURRENTS"},"data":[0,0,0,0,0,0,0,0,0,0,0,0,0,0,0,0,0,0,0,0,0,0,0,0,0,0,0,0,0,0,0,0,0,0,0,0,0,0,0,0,0,0,0,0,0,0,0,0,0,0,0,0,0,0,0,0,0,0,-0.0085,-0.0086,0,-0.0205,-0.0206,-0.0208,-0.0281,-0.0282,-0.0282,-0.0282,-0.0432,-0.0436,-0.044,0,0,0,0,0,0,0,0,0,0,0,0,0,-0.0007,-0.0007,-0.0085,-0.0086,-0.0088,-0.0205,-0.0206,-0.0208,-0.0281,-0.0282,-0.0282,-0.0282,-0.0431,-0.0435,-0.044,0,0,0,0,0,0,0,0,0,0,0,0,0,-0.0076,-0.0008,-0.0085,-0.0137,-0.0143,-0.0204,-0.0206,-0.0209,-0.0281,-0.0282,-0.0282,-0.0282,-0.0429,-0.0435,-0.0441,-0.0469,0,0,-0.0458,-0.046,0,0,0,0,0,0,0,0,-0.0072,-0.0079,-0.0128,-0.0133,-0.014,-0.0227,-0.0234,-0.0297,-0.0281,-0.0231,-0.0282,-0.0282,-0.0365,-0.0376,-0.04,-0.0476,-0.0483,-0.0458,-0.0462,-0.0464,-0.0466,0,0,0,0,0,0,0,-0.0067,-0.0075,-0.0134,-0.0129,-0.0137,-0.0184,-0.0194,-0.0247,-0.0296,-0.0235,-0.024,-0.0251,-0.0369,-0.0394,-0.0404,-0.0485,-0.0458,-0.0463,-0.0467,-0.0469,-0.0628,-0.0628,0,0,0,0,0,0,-0.0044,-0.007,-0.013,-0.0138,-0.0104,-0.0185,-0.0196,-0.02,-0.0295,-0.0309,-0.025,-0.0253,-0.0384,-0.0397,-0.041,-0.0442,-0.0464,-0.047,-0.0473,-0.0627,-0.0628,-0.0629,0,0,0,0,0,0,-0.0042,-0.0048,-0.0126,-0.0106,-0.0119,-0.0185,-0.019,-0.0202,-0.0227,-0.0306,-0.0321,-0.0262,-0.0385,-0.0402,-0.0462,-0.0449,-0.0472,-0.0477,-0.0626,-0.0627,-0.0628,-0.0512,0,0,0,0,0,0,-0.0039,-0.0046,-0.0041,-0.0104,-0.0119,-0.0157,-0.019,-0.0204,-0.0232,-0.0238,-0.0321,-0.0336,-0.0387,-0.0453,-0.0467,-0.0457,-0.0482,-0.0625,-0.0627,-0.0628,-0.0515,-0.0509,-0.0505,0,0,0,0,0,-0.0036,-0.0024,-0.004,-0.0047,-0.0109,-0.0157,-0.0169,-0.0219,-0.0232,-0.0243,-0.0303,-0.0333,-0.0473,-0.0458,-0.0475,-0.0466,-0.0624,-0.0626,-0.0628,-0.0518,-0.0511,-0.0505,0,0,0,0,0,0,0.0013,-0.0033,-0.005,-0.0053,-0.0099,-0.0169,-0.0178,-0.0212,-0.0268,-0.027,-0.0343,-0.0362,-0.0413,-0.0463,-0.0445,-0.0521,-0.0554,-0.0559,-0.0464,-0.0459,-0.0453,-0.0355,-0.0487,0,0,0,0,0,0.0028,0.0024,-0.0032,-0.0035,-0.005,-0.0112,-0.0136,-0.017,-0.0226,-0.025,-0.0312,-0.0378,-0.0435,-0.0463,-0.0528,-0.0563,-0.0528,-0.0573,-0.0567,-0.0562,-0.0497,-0.042,-0.0398,-0.0635,-0.0635,-0.0635,0,0,0.0045,0.0021,0.0017,-0.0025,-0.006,-0.0074,-0.0127,-0.0156,-0.0167,-0.0258,-0.0293,-0.0364,-0.0445,-0.0489,-0.0515,-0.0525,-0.0489,-0.0564,-0.0558,-0.0495,-0.0419,-0.0394,-0.0373,-0.0636,-0.0636,-0.0635,0,0,0.0081,0.0058,0.0068,0.0039,-0.0004,-0.0044,-0.0047,-0.0114,-0.0141,-0.0196,-0.0256,-0.0299,-0.0414,-0.0439,-0.0473,-0.0475,-0.0468,-0.0525,-0.0406,-0.0333,-0.031,-0.0289,-0.0245,-0.0221,-0.0514,-0.0514,-0.0514,0,0.0103,0.0119,0.0061,0.0065,0.0066,-0.0021,0.0,-0.0053,-0.0133,-0.0116,-0.0196,-0.028,-0.0374,-0.0357,-0.0381,-0.0452,-0.0416,-0.0418,-0.0315,-0.0294,-0.0274,-0.0234,-0.0209,-0.0509,-0.0509,-0.051,-0.051,0,0.0145,0.0162,0.0168,0.0152,0.0134,0.0137,0.0073,0.0055,0.0003,-0.0029,-0.004,-0.0157,-0.0171,-0.0249,-0.0329,-0.0245,-0.0268,-0.0316,-0.0307,-0.0241,-0.0207,-0.0182,-0.0501,-0.0503,-0.0504,-0.0506,0,0,0.0206,0.0203,0.0208,0.026,0.0196,0.0212,0.019,0.0196,0.0266,0.014,0.0242,0.0076,0.006,0.0023,-0.0068,-0.0046,0.006,-0.0117,-0.0116,-0.0029,0.0226,0.0135,0.0152,0.0045,0.0051,0.0055,0.0186,0,0.0272,0.0344,0.0299,0.0381,0.0437,0.0372,0.0392,0.0382,0.0355,0.0418,0.0324,0.0354,0.015,0.0177,0.0163,0.0113,0.0136,0.003,0.0113,0.0117,0.0065,0.0182,0.0124,0.0231,0.021,0.0214,0.0217,0,0.0357,0.0404,0.0508,0.0595,0.0613,0.0638,0.074,0.074,0.0769,0.0761,0.0768,0.0705,0.0717,0.0536,0.052,0.047,0.0372,0.0298,0.0301,0.0214,0.0073,0.0162,0.0276,-0.0011,0.0254,0.0251,0.0249,0,0.0528,0.0574,0.0692,0.0709,0.0757,0.0822,0.0845,0.0878,0.0944,0.1028,0.1114,0.1082,0.1125,0.1013,0.0791,0.0704,0.0781,0.0647,0.0472,0.0462,0.0433,0.0412,0.033,0.0672,0.0672,0.0671,0.0671,0,0.0669,0.0772,0.0799,0.088,0.1036,0.1017,0.1192,0.1205,0.1298,0.1435,0.1338,0.1454,0.1254,0.1223,0.0983,0.0824,0.0941,0.0559,0.0522,0.0458,0.0439,0.0199,0.0041,0.0676,0.0675,0.0674,0.0673,0,0.0861,0.0873,0.102,0.1098,0.1134,0.1257,0.137,0.1495,0.1568,0.176,0.1811,0.1813,0.1774,0.1529,0.1384,0.1106,0.0781,0.0833,0.0747,0.0697,0.0221,0.0072,0.0046,-0.0071,0.0705,0.0704,0.0703,0,0.097,0.1072,0.1182,0.1255,0.1297,0.1449,0.1549,0.1625,0.1751,0.1962,0.2079,0.2125,0.2139,0.1887,0.1447,0.1098,0.0798,0.0786,0.0581,0.025,0.0059,-0.0038,-0.0142,0.0576,0.0574,0.0573,0.0572,0,0.1155,0.119,0.1274,0.1422,0.1541,0.1687,0.1838,0.1979,0.2103,0.2286,0.2495,0.2552,0.23,0.195,0.1454,0.1147,0.0577,0.074,0.0459,0.0028,-0.0129,-0.0279,0.04,0.0558,0.056,0.0561,0.0561,0.0562,0.1251,0.1327,0.1411,0.1555,0.1694,0.1881,0.2034,0.2209,0.2445,0.2715,0.2764,0.2902,0.2367,0.1687,0.1258,0.0422,0.0463,0.013,0.0006,-0.0039,-0.0233,0.0396,0.0454,0.0454,0.0455,0.0455,0.0456,0,0.1317,0.1386,0.1528,0.1687,0.1858,0.1922,0.2183,0.2354,0.2638,0.2892,0.3076,0.2887,0.2182,0.1459,0.035,-0.0212,-0.0412,-0.0513,-0.067,-0.0722,-0.01,-0.0198,-0.0351,-0.0351,-0.0351,-0.035,-0.035,-0.035,0.1341,0.1449,0.1519,0.1772,0.1913,0.2162,0.2322,0.259,0.2815,0.3105,0.3202,0.3245,0.2612,0.0698,-0.0604,-0.0884,-0.1254,-0.132,-0.1465,-0.1109,-0.1059,-0.1013,-0.1142,-0.1491,-0.1493,-0.2047,-0.2053,-0.2058]}],[{"header":{"parameterUnit":"m.s-1","parameterCategory":2,"la1":30.2991,"la2":30.254,"lo1":-89.0895,"lo2":-89.0444,"dy":0.0017,"dx":0.0017,"nx":28,"ny":28,"refTime":"2025-05-30T03:00:00:Z","depth":"2","parameterNumber":2,"parameterNumberName":"U-component_of_CURRENTS"},"data":[0,0,0,0,0,0,0,0,0,0,0,0,0,0,0,0,0,0,0,0,0,0,0,0,0,0,0,0,0,0,0,0,0,0,0,0,0,0,0,0,0,0,0,0,0,0,0,0,0,0,0,0,0,0,0,0,0,0,0.2804,0.2805,0,0.2863,0.2864,0.2864,0.2884,0.2884,0.2884,0.2884,0.2903,0.2903,0.2904,0,0,0,0,0,0,0,0,0,0,0,0,0,0.2714,0.2715,0.2804,0.2805,0.2806,0.2863,0.2864,0.2865,0.2884,0.2884,0.2884,0.2884,0.2902,0.2903,0.2904,0,0,0,0,0,0,0,0,0,0,0,0,0,0.2759,0.2716,0.2804,0.2824,0.2826,0.2863,0.2864,0.2865,0.2884,0.2884,0.2884,0.2883,0.2902,0.2903,0.2904,0.2913,0,0,0.2907,0.2907,0,0,0,0,0,0,0,0,0.2757,0.2763,0.282,0.2823,0.2825,0.2867,0.2839,0.2879,0.2884,0.286,0.2884,0.2883,0.2888,0.289,0.29,0.2914,0.2915,0.2907,0.2907,0.2908,0.2908,0,0,0,0,0,0,0,0.2754,0.276,0.2826,0.2821,0.2824,0.2832,0.2838,0.2847,0.2873,0.2862,0.2864,0.2874,0.2889,0.2899,0.2901,0.2915,0.2907,0.2908,0.2908,0.2909,0.2975,0.2977,0,0,0,0,0,0,0.275,0.2757,0.2824,0.2828,0.2792,0.2833,0.284,0.2853,0.2874,0.2877,0.2874,0.2874,0.2898,0.29,0.2901,0.3024,0.2908,0.2909,0.2909,0.2974,0.2976,0.2977,0,0,0,0,0,0,0.2748,0.2755,0.2822,0.2795,0.2804,0.2835,0.2849,0.2854,0.2883,0.2883,0.2885,0.29,0.2898,0.29,0.2937,0.302,0.2909,0.291,0.2973,0.2975,0.2976,0.3198,0,0,0,0,0,0,0.2745,0.2754,0.2759,0.2795,0.2806,0.286,0.285,0.2855,0.2888,0.289,0.2905,0.2906,0.2898,0.2936,0.2938,0.302,0.2911,0.2971,0.2974,0.2976,0.3189,0.3207,0.3223,0,0,0,0,0,0.2741,0.2749,0.2759,0.2767,0.2813,0.2862,0.2869,0.2888,0.289,0.2911,0.2927,0.2907,0.2951,0.2938,0.294,0.3025,0.297,0.2973,0.2976,0.3182,0.3204,0.3222,0,0,0,0,0,0,0.2711,0.2753,0.2765,0.2784,0.2829,0.2866,0.2891,0.2902,0.2932,0.2936,0.2931,0.2934,0.2997,0.296,0.2946,0.304,0.2953,0.2957,0.3109,0.313,0.3146,0.3224,0.2911,0,0,0,0,0,0.2708,0.2728,0.2774,0.2795,0.2824,0.2862,0.2884,0.2901,0.2932,0.2945,0.2957,0.2966,0.3006,0.3027,0.3032,0.309,0.3086,0.3134,0.3151,0.3167,0.3225,0.3324,0.3358,0.2986,0.2986,0.2986,0,0,0.27,0.2729,0.2739,0.279,0.2832,0.2888,0.2876,0.2924,0.2993,0.2942,0.3028,0.3025,0.3028,0.3103,0.3127,0.309,0.325,0.317,0.3184,0.3235,0.3331,0.3368,0.3401,0.2988,0.2988,0.2987,0,0,0.2719,0.2734,0.2772,0.2813,0.2877,0.2908,0.2929,0.2981,0.3035,0.3092,0.31,0.3171,0.3164,0.3248,0.3274,0.3383,0.3331,0.3338,0.351,0.3605,0.3639,0.3669,0.3643,0.3669,0.3355,0.3356,0.3356,0,0.2714,0.2772,0.2791,0.2848,0.2906,0.2927,0.3005,0.306,0.3115,0.3203,0.3132,0.3256,0.3262,0.3446,0.3487,0.344,0.3421,0.3447,0.3638,0.3667,0.3695,0.3661,0.3687,0.3367,0.3366,0.3364,0.3363,0,0.2782,0.2824,0.2859,0.2947,0.3002,0.3069,0.3154,0.3213,0.3252,0.333,0.3485,0.35,0.3585,0.3596,0.3583,0.3793,0.3686,0.3649,0.3609,0.3748,0.3698,0.3722,0.3383,0.3379,0.3375,0.3373,0,0,0.2784,0.2891,0.2902,0.2962,0.307,0.3119,0.3257,0.342,0.353,0.3595,0.3761,0.3881,0.3901,0.3933,0.3935,0.4039,0.4197,0.3936,0.3936,0.3949,0.4318,0.4162,0.417,0.4191,0.4198,0.4203,0.4182,0,0.2849,0.2962,0.3017,0.3135,0.3208,0.3288,0.3403,0.3544,0.3659,0.38,0.3933,0.4051,0.4028,0.4058,0.4184,0.4186,0.4279,0.4201,0.4148,0.4146,0.4028,0.4203,0.3894,0.3846,0.4205,0.4208,0.4211,0,0.2913,0.2979,0.3112,0.3239,0.3284,0.3374,0.3582,0.3674,0.3905,0.3997,0.4184,0.4238,0.4444,0.435,0.4519,0.4454,0.4431,0.442,0.4417,0.4234,0.4041,0.3775,0.3874,0.425,0.4247,0.4244,0.4241,0,0.2906,0.3048,0.3159,0.3205,0.3345,0.3461,0.3555,0.377,0.3883,0.4139,0.4228,0.4458,0.4527,0.4607,0.4599,0.4562,0.4708,0.4635,0.448,0.446,0.4175,0.4121,0.4786,0.4786,0.4786,0.4786,0.4787,0,0.2954,0.3048,0.3171,0.3219,0.3347,0.3467,0.3651,0.3766,0.3982,0.412,0.4323,0.4432,0.4602,0.4683,0.4666,0.464,0.4763,0.4568,0.4501,0.4225,0.418,0.4515,0.4484,0.4785,0.4786,0.4786,0.4786,0,0.2947,0.3035,0.3116,0.3266,0.3337,0.3414,0.3648,0.3758,0.3969,0.4143,0.422,0.4454,0.4554,0.4661,0.4752,0.469,0.4689,0.464,0.4251,0.4144,0.4342,0.4322,0.4481,0.4476,0.4473,0.447,0.4467,0,0.2976,0.3016,0.3088,0.3133,0.3229,0.339,0.3485,0.3714,0.3823,0.4114,0.4152,0.4368,0.444,0.4521,0.4502,0.4475,0.4593,0.4142,0.4077,0.4421,0.4339,0.4324,0.4309,0.3729,0.372,0.3713,0.3708,0,0.299,0.2983,0.2999,0.3039,0.3146,0.3269,0.3441,0.3518,0.3746,0.3864,0.4011,0.411,0.4252,0.4114,0.4117,0.4051,0.4133,0.3998,0.4523,0.3862,0.3714,0.3631,0.3641,0.3646,0.3652,0.3657,0.366,0.3663,0.2943,0.2919,0.2882,0.2917,0.3029,0.3132,0.3172,0.3311,0.3385,0.3478,0.3685,0.3692,0.3807,0.3641,0.3549,0.3514,0.3774,0.3613,0.3634,0.3662,0.3589,0.3445,0.3304,0.3308,0.3311,0.3314,0.3317,0,0.2811,0.2813,0.2811,0.2805,0.2837,0.2994,0.3101,0.3042,0.3013,0.3136,0.3189,0.2971,0.29,0.304,0.2901,0.2903,0.2877,0.2791,0.2748,0.2812,0.2868,0.2753,0.2247,0.2243,0.224,0.2236,0,0,0.2763,0.2669,0.2627,0.2591,0.2664,0.2679,0.2712,0.2656,0.2663,0.2483,0.2475,0.2671,0.2898,0.2496,0.2488,0.2352,0.2548,0.2258,0.3122,0.3133,0.3184,0.3356,0.3254,0,0,0,0,0]},{"header":{"parameterUnit":"m.s-1","parameterCategory":2,"la1":30.2991,"la2":30.254,"lo1":-89.0895,"lo2":-89.0444,"dy":0.0017,"dx":0.0017,"nx":28,"ny":28,"refTime":"2025-05-30T03:00:00:Z","depth":"2","parameterNumber":3,"parameterNumberName":"V-component_of_CURRENTS"},"data":[0,0,0,0,0,0,0,0,0,0,0,0,0,0,0,0,0,0,0,0,0,0,0,0,0,0,0,0,0,0,0,0,0,0,0,0,0,0,0,0,0,0,0,0,0,0,0,0,0,0,0,0,0,0,0,0,0,0,-0.0065,-0.0065,0,-0.016,-0.0162,-0.0163,-0.0232,-0.0232,-0.0232,-0.0233,-0.0352,-0.0355,-0.0358,0,0,0,0,0,0,0,0,0,0,0,0,0,-0.0011,-0.0012,-0.0064,-0.0065,-0.0066,-0.016,-0.0162,-0.0163,-0.0232,-0.0232,-0.0232,-0.0233,-0.0351,-0.0355,-0.0358,0,0,0,0,0,0,0,0,0,0,0,0,0,-0.0066,-0.0012,-0.0064,-0.011,-0.0114,-0.016,-0.0162,-0.0164,-0.0232,-0.0232,-0.0233,-0.0233,-0.035,-0.0354,-0.0359,-0.0377,0,0,-0.0372,-0.0374,0,0,0,0,0,0,0,0,-0.0063,-0.0068,-0.0102,-0.0107,-0.0112,-0.0182,-0.0187,-0.0235,-0.0232,-0.019,-0.0233,-0.0233,-0.0295,-0.0304,-0.0325,-0.0382,-0.0388,-0.0372,-0.0375,-0.0377,-0.0378,0,0,0,0,0,0,0,-0.0059,-0.0065,-0.0106,-0.0103,-0.0109,-0.0149,-0.0157,-0.0197,-0.0242,-0.0194,-0.0198,-0.0204,-0.0299,-0.0321,-0.0328,-0.0389,-0.0372,-0.0376,-0.0379,-0.038,-0.0445,-0.0444,0,0,0,0,0,0,-0.0037,-0.0061,-0.0102,-0.0108,-0.0085,-0.0149,-0.0158,-0.0161,-0.0241,-0.0253,-0.0204,-0.0207,-0.0313,-0.0323,-0.0333,-0.0362,-0.0377,-0.0381,-0.0383,-0.0446,-0.0445,-0.0444,0,0,0,0,0,0,-0.0035,-0.004,-0.0099,-0.0085,-0.0095,-0.0149,-0.0152,-0.0163,-0.0185,-0.0248,-0.026,-0.0214,-0.0314,-0.0327,-0.0365,-0.0367,-0.0383,-0.0387,-0.0447,-0.0445,-0.0444,-0.0418,0,0,0,0,0,0,-0.0033,-0.0038,-0.0034,-0.0083,-0.0094,-0.0113,-0.0152,-0.0165,-0.0186,-0.0192,-0.026,-0.0272,-0.0315,-0.0358,-0.0369,-0.0373,-0.039,-0.0448,-0.0446,-0.0445,-0.042,-0.0415,-0.0412,0,0,0,0,0,-0.0031,-0.0017,-0.0033,-0.0038,-0.0086,-0.0112,-0.0122,-0.0165,-0.0186,-0.0188,-0.0238,-0.027,-0.0355,-0.0361,-0.0375,-0.038,-0.0449,-0.0447,-0.0445,-0.0421,-0.0416,-0.0412,0,0,0,0,0,0,0.0005,-0.0024,-0.0043,-0.004,-0.0069,-0.0122,-0.0127,-0.0158,-0.0201,-0.0206,-0.027,-0.0285,-0.0316,-0.0343,-0.0349,-0.0388,-0.0402,-0.0403,-0.038,-0.0376,-0.0372,-0.0345,-0.0394,0,0,0,0,0,0.0018,0.002,-0.0018,-0.0016,-0.0025,-0.0076,-0.0093,-0.0119,-0.0162,-0.0182,-0.0232,-0.0277,-0.0317,-0.0343,-0.0376,-0.0406,-0.0422,-0.0411,-0.0407,-0.0404,-0.0388,-0.0395,-0.0391,-0.0437,-0.0437,-0.0437,0,0,0.0031,0.0016,0.0016,-0.0008,-0.0036,-0.0036,-0.0088,-0.0103,-0.0115,-0.0187,-0.022,-0.0266,-0.0319,-0.0351,-0.0367,-0.0378,-0.0405,-0.0401,-0.0399,-0.0384,-0.0393,-0.0389,-0.0385,-0.0435,-0.0436,-0.0436,0,0,0.0067,0.0048,0.0064,0.0051,0.0025,-0.0005,-0.0004,-0.0052,-0.0087,-0.0118,-0.0174,-0.0222,-0.0276,-0.0327,-0.0356,-0.0348,-0.038,-0.035,-0.0322,-0.033,-0.0327,-0.0324,-0.0367,-0.0368,-0.0354,-0.0354,-0.0354,0,0.0083,0.0099,0.0064,0.0079,0.0075,0.0017,0.0034,-0.0008,-0.0066,-0.009,-0.0114,-0.0202,-0.0264,-0.0311,-0.0318,-0.0343,-0.0353,-0.0343,-0.0326,-0.0323,-0.0321,-0.0366,-0.0367,-0.0353,-0.0353,-0.0353,-0.0353,0,0.0132,0.0144,0.0154,0.0155,0.0146,0.0151,0.0102,0.0078,0.0034,-0.0012,-0.0063,-0.0148,-0.0193,-0.0231,-0.0282,-0.0298,-0.0316,-0.0319,-0.0341,-0.0315,-0.0364,-0.0366,-0.035,-0.0351,-0.0351,-0.0352,0,0,0.0166,0.0186,0.0189,0.0198,0.0189,0.0179,0.0171,0.0136,0.0115,0.0055,0.0029,-0.0067,-0.0109,-0.0143,-0.0216,-0.0248,-0.0277,-0.0273,-0.0275,-0.0321,-0.0308,-0.0347,-0.0354,-0.0266,-0.0266,-0.0265,-0.0362,0,0.0212,0.025,0.0256,0.0288,0.0298,0.0267,0.0259,0.022,0.0165,0.0123,0.0035,-0.0013,-0.0077,-0.0109,-0.0146,-0.0232,-0.0274,-0.0251,-0.0321,-0.0324,-0.0365,-0.0354,-0.0308,-0.039,-0.0364,-0.0364,-0.0364,0,0.0258,0.0274,0.0316,0.0336,0.034,0.035,0.0324,0.0313,0.0247,0.0209,0.0162,0.0097,0.0027,-0.0026,-0.0134,-0.0107,-0.0199,-0.0274,-0.0279,-0.0318,-0.0364,-0.0404,-0.0395,-0.0368,-0.0368,-0.0367,-0.0367,0,0.0268,0.0316,0.0346,0.0355,0.0369,0.0375,0.0375,0.0329,0.0307,0.0262,0.0245,0.0177,0.0122,0.0048,-0.011,-0.0106,-0.0235,-0.0248,-0.0377,-0.0383,-0.0359,-0.0362,-0.0321,-0.0321,-0.0321,-0.032,-0.032,0,0.0296,0.0306,0.0349,0.0358,0.038,0.0393,0.0391,0.0379,0.0357,0.0358,0.0289,0.028,0.0143,0.0047,-0.0071,-0.0229,-0.0197,-0.0368,-0.0399,-0.0352,-0.0354,-0.0337,-0.0337,-0.0324,-0.0323,-0.0322,-0.0322,0,0.0255,0.0293,0.033,0.0375,0.0379,0.0388,0.0398,0.0411,0.0389,0.0394,0.0394,0.0337,0.0265,0.0094,-0.0061,-0.0201,-0.0338,-0.0415,-0.0374,-0.0398,-0.0494,-0.0492,-0.0539,-0.0541,-0.0542,-0.0544,-0.0545,0,0.0211,0.0234,0.0327,0.0357,0.0368,0.038,0.0408,0.0414,0.0461,0.0449,0.0494,0.0397,0.0417,0.0154,-0.01,-0.0316,-0.0359,-0.0485,-0.0473,-0.0485,-0.0511,-0.0506,-0.0502,-0.0449,-0.0449,-0.0449,-0.0449,0,0.0134,0.0198,0.0268,0.0362,0.0408,0.0435,0.0495,0.0543,0.0595,0.0662,0.0779,0.0792,0.0503,0.0328,-0.0069,-0.0229,-0.0433,-0.0498,-0.0501,-0.0399,-0.0407,-0.043,-0.0428,-0.0451,-0.0451,-0.0451,-0.0451,-0.0451,0.0109,0.0155,0.0312,0.0406,0.0455,0.0549,0.0637,0.0766,0.0922,0.1072,0.1027,0.1081,0.0711,0.0309,-0.0034,-0.0432,-0.0421,-0.0548,-0.0544,-0.054,-0.0511,-0.0521,-0.0584,-0.0584,-0.0585,-0.0585,-0.0585,0,0.0135,0.0214,0.0324,0.0503,0.0614,0.0589,0.0755,0.0909,0.1199,0.1286,0.1414,0.1143,0.0868,0.0453,-0.012,-0.0476,-0.0491,-0.0587,-0.0516,-0.0512,-0.051,-0.0476,-0.0541,-0.0542,-0.0542,-0.0543,0,0,0.0156,0.031,0.042,0.0648,0.0726,0.09,0.1011,0.1247,0.1401,0.1583,0.1609,0.151,0.1012,0.0613,0.012,-0.0197,-0.0269,-0.0265,-0.0266,-0.0121,-0.0113,-0.046,-0.0402,0,0,0,0,0]}],[{"header":{"parameterUnit":"m.s-1","parameterCategory":2,"la1":30.2991,"la2":30.254,"lo1":-89.0895,"lo2":-89.0444,"dy":0.0017,"dx":0.0017,"nx":28,"ny":28,"refTime":"2025-05-30T03:00:00:Z","depth":"4","parameterNumber":2,"parameterNumberName":"U-component_of_CURRENTS"},"data":[0,0,0,0,0,0,0,0,0,0,0,0,0,0,0,0,0,0,0,0,0,0,0,0,0,0,0,0,0,0,0,0,0,0,0,0,0,0,0,0,0,0,0,0,0,0,0,0,0,0,0,0,0,0,0,0,0,0,0.158,0.1581,0,0.1656,0.1656,0.1657,0.1719,0.172,0.1721,0.1722,0.1787,0.1788,0.1789,0,0,0,0,0,0,0,0,0,0,0,0,0,0.15,0.1501,0.158,0.1581,0.1583,0.1656,0.1657,0.1657,0.1719,0.172,0.1721,0.1722,0.1787,0.1788,0.1789,0,0,0,0,0,0,0,0,0,0,0,0,0,0.1549,0.1501,0.158,0.1624,0.1629,0.1656,0.1657,0.1658,0.1719,0.172,0.1722,0.1723,0.1786,0.1788,0.1789,0.1771,0,0,0.1793,0.1794,0,0,0,0,0,0,0,0,0.1546,0.1551,0.1616,0.1621,0.1627,0.1682,0.1652,0.1696,0.1719,0.1682,0.1722,0.1724,0.1751,0.1756,0.1764,0.1774,0.1777,0.1793,0.1794,0.1795,0.1795,0,0,0,0,0,0,0,0.1542,0.1549,0.1608,0.1618,0.1624,0.1644,0.1652,0.1661,0.1707,0.1686,0.1691,0.1703,0.1754,0.1762,0.1766,0.1778,0.1793,0.1795,0.1795,0.1796,0.189,0.1892,0,0,0,0,0,0,0.1536,0.1545,0.1605,0.161,0.1591,0.1644,0.1653,0.1661,0.1707,0.1716,0.1701,0.1705,0.1759,0.1764,0.1768,0.1843,0.1795,0.1796,0.1797,0.1889,0.1891,0.1892,0,0,0,0,0,0,0.1534,0.154,0.1602,0.1582,0.1591,0.1644,0.1652,0.1662,0.1711,0.1719,0.1728,0.1746,0.1761,0.1766,0.1816,0.1842,0.1797,0.1798,0.1887,0.1889,0.1892,0.1932,0,0,0,0,0,0,0.1531,0.1539,0.1558,0.1581,0.1592,0.1635,0.1652,0.1662,0.1714,0.1721,0.1759,0.1765,0.1762,0.1814,0.1817,0.1843,0.1799,0.1884,0.1888,0.1891,0.1928,0.1936,0.1942,0,0,0,0,0,0.1528,0.1541,0.1558,0.1567,0.1611,0.1636,0.1643,0.1684,0.1716,0.1734,0.1774,0.1766,0.1836,0.1817,0.182,0.1847,0.1883,0.1887,0.189,0.1926,0.1934,0.1941,0,0,0,0,0,0,0.1517,0.155,0.1569,0.1593,0.1622,0.1648,0.1677,0.1705,0.1751,0.177,0.1785,0.1793,0.1846,0.1844,0.1822,0.1886,0.1859,0.1863,0.1884,0.1892,0.1899,0.1917,0.18,0,0,0,0,0,0.1522,0.1545,0.1573,0.1597,0.1615,0.1655,0.1679,0.1703,0.1739,0.1764,0.1795,0.1828,0.1856,0.1875,0.1895,0.1926,0.1952,0.1948,0.1954,0.196,0.1979,0.2065,0.2081,0.1905,0.1905,0.1905,0,0,0.1525,0.1548,0.1562,0.1598,0.1628,0.1652,0.1673,0.1714,0.1749,0.176,0.1831,0.1855,0.1873,0.1912,0.1935,0.1919,0.2018,0.1965,0.1969,0.1985,0.207,0.2088,0.2103,0.1907,0.1907,0.1907,0,0,0.1528,0.1565,0.1581,0.161,0.1657,0.1674,0.1695,0.1741,0.1782,0.1836,0.1861,0.1907,0.1949,0.1967,0.198,0.2036,0.2053,0.2046,0.2091,0.2173,0.2189,0.2203,0.2232,0.2248,0.2046,0.2046,0.2046,0,0.1531,0.1559,0.159,0.1616,0.1648,0.1689,0.1716,0.1754,0.1815,0.1847,0.1866,0.1962,0.1972,0.2029,0.2054,0.2049,0.2095,0.2055,0.2183,0.2197,0.2211,0.2238,0.2255,0.2048,0.2048,0.2048,0.2048,0,0.1536,0.1577,0.1594,0.1639,0.1672,0.1705,0.1754,0.1809,0.1863,0.1887,0.1975,0.2014,0.2075,0.208,0.2087,0.2186,0.2184,0.2183,0.2162,0.2232,0.2254,0.2272,0.2052,0.2051,0.205,0.205,0,0,0.1493,0.1579,0.1591,0.1624,0.1693,0.1713,0.1788,0.1843,0.1909,0.1964,0.204,0.21,0.2139,0.2161,0.2187,0.2254,0.237,0.2274,0.2277,0.23,0.2543,0.2365,0.2366,0.2415,0.2419,0.2422,0.251,0,0.1492,0.1543,0.1591,0.1649,0.1679,0.1754,0.1814,0.1873,0.1951,0.203,0.2077,0.2157,0.2164,0.2226,0.2294,0.2359,0.2426,0.2345,0.2475,0.2478,0.231,0.2384,0.2434,0.2523,0.2527,0.253,0.2532,0,0.1471,0.152,0.1577,0.1668,0.169,0.1736,0.186,0.1922,0.2026,0.2098,0.219,0.2235,0.2335,0.2345,0.2501,0.2464,0.2523,0.2559,0.2564,0.2401,0.2333,0.2447,0.2563,0.2561,0.2559,0.2556,0.2555,0,0.1412,0.1502,0.1552,0.1586,0.1693,0.1755,0.1821,0.1939,0.2002,0.2165,0.2229,0.2346,0.2432,0.2534,0.26,0.2592,0.2749,0.2735,0.262,0.2606,0.2722,0.2706,0.2866,0.2866,0.2866,0.2865,0.2865,0,0.1371,0.1413,0.154,0.1573,0.1628,0.1734,0.1831,0.1925,0.2067,0.2129,0.227,0.2345,0.2504,0.2584,0.2638,0.2665,0.2787,0.2645,0.2633,0.273,0.2715,0.2732,0.2715,0.2869,0.2868,0.2867,0.2867,0,0.1272,0.1365,0.1423,0.1563,0.1599,0.1644,0.1792,0.1866,0.2041,0.2146,0.2201,0.2372,0.2507,0.26,0.2756,0.2699,0.2745,0.2727,0.28,0.2787,0.2537,0.2522,0.2618,0.2612,0.2608,0.2604,0.2601,0,0.121,0.1242,0.1381,0.1413,0.1479,0.1577,0.1636,0.1819,0.1911,0.2133,0.2158,0.2338,0.2439,0.2489,0.2619,0.2695,0.2682,0.267,0.2631,0.2541,0.2521,0.2512,0.2503,0.2594,0.2593,0.2592,0.2591,0,0.1093,0.1169,0.123,0.1301,0.1371,0.143,0.1553,0.1598,0.1822,0.1981,0.2089,0.2165,0.2297,0.24,0.2474,0.2521,0.2654,0.2624,0.2634,0.2597,0.2514,0.2496,0.2492,0.2575,0.2578,0.2579,0.258,0,0.0999,0.1012,0.1118,0.1172,0.1243,0.1282,0.1358,0.1486,0.1588,0.1861,0.1882,0.2084,0.226,0.2309,0.2366,0.2405,0.2398,0.2328,0.2353,0.2372,0.2253,0.2109,0.2052,0,0,0,0,0,0.0898,0.0928,0.0972,0.1037,0.111,0.1161,0.1301,0.1406,0.162,0.1648,0.1775,0.1892,0.2012,0.2108,0.2111,0.227,0.2398,0.2261,0.2326,0.249,0.2508,0.2392,0,0,0,0,0,0,0.0828,0.0878,0.0934,0.0934,0.0956,0.102,0.1109,0.1246,0.1299,0.1519,0.1601,0.1768,0.1917,0.1994,0.2069,0.2102,0.2104,0.2395,0.239,0.248,0.2496,0.2511,0.2398,0,0,0,0,0]},{"header":{"parameterUnit":"m.s-1","parameterCategory":2,"la1":30.2991,"la2":30.254,"lo1":-89.0895,"lo2":-89.0444,"dy":0.0017,"dx":0.0017,"nx":28,"ny":28,"refTime":"2025-05-30T03:00:00:Z","depth":"4","parameterNumber":3,"parameterNumberName":"V-component_of_CURRENTS"},"data":[0,0,0,0,0,0,0,0,0,0,0,0,0,0,0,0,0,0,0,0,0,0,0,0,0,0,0,0,0,0,0,0,0,0,0,0,0,0,0,0,0,0,0,0,0,0,0,0,0,0,0,0,0,0,0,0,0,0,0.0059,0.0058,0,0.0002,0.0001,0.0001,-0.0045,-0.0045,-0.0045,-0.0046,-0.0114,-0.0115,-0.0117,0,0,0,0,0,0,0,0,0,0,0,0,0,0.0078,0.0078,0.0059,0.0058,0.0058,0.0002,0.0001,0.0,-0.0045,-0.0045,-0.0045,-0.0046,-0.0113,-0.0115,-0.0117,0,0,0,0,0,0,0,0,0,0,0,0,0,0.0049,0.0078,0.0059,0.003,0.0027,0.0002,0.0001,0.0,-0.0044,-0.0045,-0.0045,-0.0046,-0.0113,-0.0115,-0.0117,-0.0122,0,0,-0.0124,-0.0125,0,0,0,0,0,0,0,0,0.0051,0.0048,0.0035,0.0032,0.0028,-0.0013,-0.0017,-0.0041,-0.0044,-0.0019,-0.0046,-0.0046,-0.008,-0.0085,-0.0096,-0.0125,-0.0128,-0.0124,-0.0126,-0.0127,-0.0127,0,0,0,0,0,0,0,0.0053,0.005,0.0035,0.0034,0.003,0.0002,-0.0002,-0.0022,-0.0047,-0.0021,-0.0024,-0.0028,-0.0082,-0.0094,-0.0098,-0.0129,-0.0124,-0.0126,-0.0128,-0.0129,-0.0145,-0.0144,0,0,0,0,0,0,0.0066,0.0052,0.0037,0.0033,0.004,0.0002,-0.0003,-0.0001,-0.0047,-0.0054,-0.0028,-0.003,-0.009,-0.0096,-0.0101,-0.0082,-0.0127,-0.0129,-0.013,-0.0146,-0.0145,-0.0144,0,0,0,0,0,0,0.0067,0.0065,0.0039,0.0042,0.0037,0.0003,0.0005,-0.0002,-0.0012,-0.0052,-0.0059,-0.0031,-0.0091,-0.0098,-0.011,-0.0086,-0.013,-0.0132,-0.0147,-0.0146,-0.0144,-0.0062,0,0,0,0,0,0,0.0067,0.0066,0.007,0.0043,0.0037,0.0041,0.0006,-0.0002,-0.0013,-0.0017,-0.0057,-0.0064,-0.0092,-0.0106,-0.0112,-0.009,-0.0134,-0.0148,-0.0146,-0.0145,-0.0066,-0.0058,-0.0052,0,0,0,0,0,0.0068,0.0082,0.007,0.0068,0.0045,0.0042,0.0037,0.0009,-0.0013,-0.0006,-0.0036,-0.0063,-0.0099,-0.0107,-0.0114,-0.0093,-0.0149,-0.0147,-0.0145,-0.0069,-0.006,-0.0052,0,0,0,0,0,0,0.009,0.0078,0.0065,0.0073,0.0064,0.0035,0.0036,0.0015,-0.0006,-0.0012,-0.0054,-0.0062,-0.0063,-0.009,-0.0098,-0.0092,-0.0127,-0.0126,-0.0067,-0.0058,-0.0051,-0.0062,-0.0136,0,0,0,0,0,0.0098,0.0106,0.0089,0.0096,0.0095,0.0065,0.0058,0.0041,0.002,0.001,-0.0019,-0.0046,-0.006,-0.0069,-0.0088,-0.0087,-0.0152,-0.0077,-0.007,-0.0063,-0.0076,-0.0167,-0.017,-0.0137,-0.0137,-0.0137,0,0,0.0107,0.0102,0.0105,0.0101,0.0089,0.01,0.006,0.0059,0.0066,0.0007,0.0006,-0.0022,-0.0055,-0.0051,-0.0053,-0.007,-0.0101,-0.006,-0.0055,-0.0072,-0.0166,-0.0169,-0.0173,-0.0136,-0.0136,-0.0136,0,0,0.0138,0.0129,0.0148,0.0148,0.014,0.0126,0.013,0.0108,0.0097,0.0095,0.0056,0.0036,0.0017,-0.0006,-0.0019,0.0015,-0.006,0.0019,0.0047,-0.0039,-0.0044,-0.0048,-0.0113,-0.0125,0.0024,0.0024,0.0024,0,0.0149,0.0167,0.0153,0.0174,0.0175,0.0144,0.0163,0.0156,0.0131,0.0117,0.0108,0.0054,0.0036,0.002,0.004,0.0031,-0.0031,0.002,-0.0032,-0.0038,-0.0044,-0.0111,-0.0124,0.0028,0.0028,0.0027,0.0027,0,0.0197,0.0208,0.0222,0.0236,0.024,0.0251,0.0242,0.0237,0.0217,0.0194,0.0171,0.0134,0.0095,0.0101,0.0085,0.0045,0.0013,-0.0013,-0.0057,-0.0043,-0.0113,-0.0128,0.0034,0.0033,0.0031,0.003,0,0,0.0223,0.0249,0.0252,0.0264,0.027,0.0278,0.0293,0.0283,0.0277,0.0251,0.0226,0.0212,0.0167,0.0149,0.0119,0.0057,-0.0016,0.0011,0.0005,-0.0058,-0.0206,-0.0151,-0.0164,-0.0062,-0.0064,-0.0066,-0.0229,0,0.0259,0.0304,0.0307,0.0344,0.0362,0.0344,0.036,0.0348,0.0324,0.0295,0.0242,0.0216,0.0195,0.0176,0.0111,0.0008,-0.0058,0.0031,-0.0207,-0.0214,-0.0172,-0.018,-0.0075,-0.0241,-0.0245,-0.0248,-0.0249,0,0.0298,0.0322,0.0368,0.0385,0.0392,0.0413,0.0408,0.0421,0.0377,0.0354,0.03,0.0247,0.0171,0.0147,-0.0038,0.0014,-0.0088,-0.017,-0.0179,-0.0175,-0.0189,-0.0265,-0.0279,-0.0277,-0.0274,-0.0272,-0.0271,0,0.0314,0.0355,0.0391,0.0403,0.043,0.0442,0.0451,0.0432,0.0451,0.0382,0.0371,0.0251,0.0208,0.0043,-0.0089,-0.0088,-0.0304,-0.033,-0.0381,-0.0378,-0.0417,-0.0411,-0.0479,-0.0479,-0.0479,-0.0478,-0.0478,0,0.0342,0.0371,0.0405,0.0427,0.0479,0.0475,0.0516,0.0502,0.0487,0.0508,0.0406,0.0384,0.0176,0.0048,-0.0106,-0.0275,-0.0324,-0.0387,-0.0422,-0.0372,-0.036,-0.0427,-0.0419,-0.0484,-0.0483,-0.0482,-0.0481,0,0.0367,0.0385,0.0437,0.0474,0.0494,0.0536,0.0594,0.0619,0.059,0.0608,0.0591,0.0468,0.0295,0.01,-0.0162,-0.0265,-0.0456,-0.0501,-0.0415,-0.0442,-0.0476,-0.0461,-0.061,-0.061,-0.0609,-0.0609,-0.0609,0,0.0393,0.0423,0.0488,0.0539,0.0568,0.063,0.0681,0.068,0.0711,0.0671,0.0679,0.0527,0.0428,0.0105,-0.0118,-0.0424,-0.0448,-0.0551,-0.0534,-0.0473,-0.0493,-0.0479,-0.0465,-0.0608,-0.0608,-0.0608,-0.0608,0,0.0455,0.0475,0.0518,0.061,0.068,0.0764,0.0823,0.085,0.0848,0.0826,0.0754,0.0585,0.04,0.0131,-0.0087,-0.0306,-0.0497,-0.0549,-0.0552,-0.0536,-0.0472,-0.049,-0.0477,-0.0607,-0.0607,-0.0607,-0.0607,0,0.0511,0.0549,0.0599,0.0683,0.0775,0.0856,0.0888,0.0911,0.093,0.0873,0.0847,0.0632,0.0498,0.0193,-0.0016,-0.0218,-0.028,-0.0349,-0.0363,-0.0368,-0.0236,-0.0115,-0.018,0,0,0,0,0,0.0556,0.0589,0.067,0.0748,0.0837,0.0885,0.0965,0.0982,0.0974,0.0944,0.0897,0.0724,0.0411,0.0264,0.007,-0.0024,-0.0321,-0.0259,-0.0408,-0.06,-0.0601,-0.0481,0,0,0,0,0,0,0.0587,0.0651,0.0668,0.0783,0.0842,0.0941,0.0992,0.0996,0.0971,0.0933,0.0769,0.0678,0.037,0.0519,0.0064,0.0,-0.0119,-0.0412,-0.0415,-0.0599,-0.06,-0.0601,-0.0478,0,0,0,0,0]}]]